ZHUHAI-1 01 (CAS 4A) (42761 NORAD) Tracking and Keplerian Element Data

This shows tracking and keplerian element data for the satellite.

Feedback or suggestion? Click here.




ElementValue
Catalog42761
NameZHUHAI-1 01 (CAS 4A)
Epoch Orbit7840
Epoch Day320.11457635
Epoch Year2018
RAAN328.812
Inclination43.0207
Eccentricity0.0011601
Argument of Perigee336.9344
Mean Anonmoly88.8976
Mean Motion15.09497521
Decay Rate2.33E-06
L11 42761U 17034D 18320.11457635 .00000233 00000-0 27846-4 0 9990
L22 42761 43.0207 328.8120 0011601 336.9344 88.8976 15.09497521 78401

Live tracking and technical data element details for ZHUHAI-1 01 (CAS 4A) (NORAD 42761). ZHUHAI-1 01 (CAS 4A) can be tracked NOW for your location showing map with azimuth and elevation plus other details from your city location.

Track the satellite on the map from your city or location and see movement details for azimuth, elevation, latitude, longitude, range, height, and movement on the map or in text.







IsCatalogInMostPopularTable: catalog: 42761, numindb: 150
Update: records affected: 1



GetName: 42761 ZHUHAI-1 01 (CAS 4A)

Hit Count: updated at: Fri, 16 Nov 2018 12:35:41 GMT